Year,Month,Day,Hour,Minute,Value (Times are PST for temperature in C)
2009,07,25,00,00,19.10
2009,07,25,00,01,19.10
2009,07,25,00,02,19.00
2009,07,25,00,03,19.00
2009,07,25,00,04,18.90
2009,07,25,00,05,18.90
2009,07,25,00,06,18.80
2009,07,25,00,07,18.80
2009,07,25,00,08,18.70
2009,07,25,00,09,18.70
2009,07,25,00,10,18.60
2009,07,25,00,11,18.50
2009,07,25,00,12,18.50
2009,07,25,00,13,18.40
2009,07,25,00,14,18.40
2009,07,25,00,15,18.30
2009,07,25,00,16,18.30
2009,07,25,00,17,18.30
2009,07,25,00,18,18.20
2009,07,25,00,19,18.20
2009,07,25,00,20,18.20
2009,07,25,00,21,18.20
2009,07,25,00,22,18.10
2009,07,25,00,23,18.10
2009,07,25,00,24,18.00
2009,07,25,00,25,17.90
2009,07,25,00,26,17.80
2009,07,25,00,27,17.80
2009,07,25,00,28,17.80
2009,07,25,00,29,17.70
2009,07,25,00,30,17.70
2009,07,25,00,31,17.60
2009,07,25,00,32,17.50
2009,07,25,00,33,17.50
2009,07,25,00,34,17.40
2009,07,25,00,35,17.30
2009,07,25,00,36,17.30
2009,07,25,00,37,17.20
2009,07,25,00,38,17.20
2009,07,25,00,39,17.10
2009,07,25,00,40,17.10
2009,07,25,00,41,17.10
2009,07,25,00,42,17.10
2009,07,25,00,43,17.10
2009,07,25,00,44,17.10
2009,07,25,00,45,17.00
2009,07,25,00,46,17.00
2009,07,25,00,47,17.00
2009,07,25,00,48,17.00
2009,07,25,00,49,17.00
2009,07,25,00,50,16.90
2009,07,25,00,51,16.90
2009,07,25,00,52,16.90
2009,07,25,00,53,16.90
2009,07,25,00,54,16.90
2009,07,25,00,55,16.90
2009,07,25,00,56,16.90
2009,07,25,00,57,16.80
2009,07,25,00,58,16.80
2009,07,25,00,59,16.80
2009,07,25,01,00,16.80
2009,07,25,01,01,16.80
2009,07,25,01,02,16.80
2009,07,25,01,03,16.80
2009,07,25,01,04,16.80
2009,07,25,01,05,16.80
2009,07,25,01,06,16.80
2009,07,25,01,07,16.80
2009,07,25,01,08,16.70
2009,07,25,01,09,16.70
2009,07,25,01,10,16.70
2009,07,25,01,11,16.70
2009,07,25,01,12,16.70
2009,07,25,01,13,16.60
2009,07,25,01,14,16.60
2009,07,25,01,15,16.60
2009,07,25,01,16,16.60
2009,07,25,01,17,16.60
2009,07,25,01,18,16.60
2009,07,25,01,19,16.60
2009,07,25,01,20,16.50
2009,07,25,01,21,16.50
2009,07,25,01,22,16.50
2009,07,25,01,23,16.40
2009,07,25,01,24,16.40
2009,07,25,01,25,16.40
2009,07,25,01,26,16.40
2009,07,25,01,27,16.30
2009,07,25,01,28,16.30
2009,07,25,01,29,16.30
2009,07,25,01,30,16.30
2009,07,25,01,31,16.30
2009,07,25,01,32,16.20
2009,07,25,01,33,16.20
2009,07,25,01,34,16.20
2009,07,25,01,35,16.20
2009,07,25,01,36,16.20
2009,07,25,01,37,16.20
2009,07,25,01,38,16.20
2009,07,25,01,39,16.10
2009,07,25,01,40,16.10
2009,07,25,01,41,16.10
2009,07,25,01,42,16.10
2009,07,25,01,43,16.10
2009,07,25,01,44,16.10
2009,07,25,01,45,16.00
2009,07,25,01,46,16.00
2009,07,25,01,47,16.00
2009,07,25,01,48,16.00
2009,07,25,01,49,16.00
2009,07,25,01,50,15.90
2009,07,25,01,51,15.90
2009,07,25,01,52,15.90
2009,07,25,01,53,16.00
2009,07,25,01,54,16.00
2009,07,25,01,55,16.10
2009,07,25,01,56,16.20
2009,07,25,01,57,16.40
2009,07,25,01,58,16.50
2009,07,25,01,59,16.70
2009,07,25,02,00,16.80
2009,07,25,02,01,16.90
2009,07,25,02,02,17.00
2009,07,25,02,03,17.10
2009,07,25,02,04,17.20
2009,07,25,02,05,17.30
2009,07,25,02,06,17.30
2009,07,25,02,07,17.40
2009,07,25,02,08,17.40
2009,07,25,02,09,17.40
2009,07,25,02,10,17.50
2009,07,25,02,11,17.50
2009,07,25,02,12,17.50
2009,07,25,02,13,17.50
2009,07,25,02,14,17.50
2009,07,25,02,15,17.50
2009,07,25,02,16,17.50
2009,07,25,02,17,17.40
2009,07,25,02,18,17.40
2009,07,25,02,19,17.40
2009,07,25,02,20,17.40
2009,07,25,02,21,17.40
2009,07,25,02,22,17.30
2009,07,25,02,23,17.30
2009,07,25,02,24,17.30
2009,07,25,02,25,17.30
2009,07,25,02,26,17.20
2009,07,25,02,27,17.10
2009,07,25,02,28,17.10
2009,07,25,02,29,17.00
2009,07,25,02,30,16.90
2009,07,25,02,31,16.90
2009,07,25,02,32,16.80
2009,07,25,02,33,16.70
2009,07,25,02,34,16.70
2009,07,25,02,35,16.60
2009,07,25,02,36,16.50
2009,07,25,02,37,16.50
2009,07,25,02,38,16.40
2009,07,25,02,39,16.30
2009,07,25,02,40,16.30
2009,07,25,02,41,16.30
2009,07,25,02,42,16.20
2009,07,25,02,43,16.20
2009,07,25,02,44,16.20
2009,07,25,02,45,16.20
2009,07,25,02,46,16.20
2009,07,25,02,47,16.20
2009,07,25,02,48,16.20
2009,07,25,02,49,16.20
2009,07,25,02,50,16.20
2009,07,25,02,51,16.10
2009,07,25,02,52,16.10
2009,07,25,02,53,16.10
2009,07,25,02,54,16.10
2009,07,25,02,55,16.00
2009,07,25,02,56,15.90
2009,07,25,02,57,15.90
2009,07,25,02,58,15.90
2009,07,25,02,59,15.90
2009,07,25,03,00,15.90
2009,07,25,03,01,15.80
2009,07,25,03,02,15.80
2009,07,25,03,03,15.80
2009,07,25,03,04,15.80
2009,07,25,03,05,15.80
2009,07,25,03,06,15.80
2009,07,25,03,07,15.80
2009,07,25,03,08,15.80
2009,07,25,03,09,15.80
2009,07,25,03,10,15.90
2009,07,25,03,11,15.90
2009,07,25,03,12,15.90
2009,07,25,03,13,15.90
2009,07,25,03,14,16.00
2009,07,25,03,15,16.10
2009,07,25,03,16,16.10
2009,07,25,03,17,16.20
2009,07,25,03,18,16.20
2009,07,25,03,19,16.20
2009,07,25,03,20,16.30
2009,07,25,03,21,16.30
2009,07,25,03,22,16.30
2009,07,25,03,23,16.30
2009,07,25,03,24,16.40
2009,07,25,03,25,16.40
2009,07,25,03,26,16.40
2009,07,25,03,27,16.40
2009,07,25,03,28,16.40
2009,07,25,03,29,16.40
2009,07,25,03,30,16.30
2009,07,25,03,31,16.30
2009,07,25,03,32,16.30
2009,07,25,03,33,16.30
2009,07,25,03,34,16.30
2009,07,25,03,35,16.30
2009,07,25,03,36,16.30
2009,07,25,03,37,16.30
2009,07,25,03,38,16.30
2009,07,25,03,39,16.30
2009,07,25,03,40,16.30
2009,07,25,03,41,16.30
2009,07,25,03,42,16.30
2009,07,25,03,43,16.20
2009,07,25,03,44,16.20
2009,07,25,03,45,16.20
2009,07,25,03,46,16.20
2009,07,25,03,47,16.10
2009,07,25,03,48,16.10
2009,07,25,03,49,16.10
2009,07,25,03,50,16.10
2009,07,25,03,51,16.10
2009,07,25,03,52,16.10
2009,07,25,03,53,16.00
2009,07,25,03,54,16.00
2009,07,25,03,55,16.00
2009,07,25,03,56,15.90
2009,07,25,03,57,15.90
2009,07,25,03,58,15.90
2009,07,25,03,59,15.90
2009,07,25,04,00,15.80
2009,07,25,04,01,15.80
2009,07,25,04,02,15.80
2009,07,25,04,03,15.80
2009,07,25,04,04,15.80
2009,07,25,04,05,15.70
2009,07,25,04,06,15.70
2009,07,25,04,07,15.70
2009,07,25,04,08,15.70
2009,07,25,04,09,15.60
2009,07,25,04,10,15.60
2009,07,25,04,11,15.60
2009,07,25,04,12,15.50
2009,07,25,04,13,15.50
2009,07,25,04,14,15.50
2009,07,25,04,15,15.40
2009,07,25,04,16,15.40
2009,07,25,04,17,15.40
2009,07,25,04,18,15.30
2009,07,25,04,19,15.30
2009,07,25,04,20,15.30
2009,07,25,04,21,15.30
2009,07,25,04,22,15.30
2009,07,25,04,23,15.30
2009,07,25,04,24,15.30
2009,07,25,04,25,15.20
2009,07,25,04,26,15.20
2009,07,25,04,27,15.20
2009,07,25,04,28,15.20
2009,07,25,04,29,15.20
2009,07,25,04,30,15.10
2009,07,25,04,31,15.10
2009,07,25,04,32,15.10
2009,07,25,04,33,15.00
2009,07,25,04,34,15.00
2009,07,25,04,35,15.00
2009,07,25,04,36,15.00
2009,07,25,04,37,15.00
2009,07,25,04,38,15.00
2009,07,25,04,39,15.00
2009,07,25,04,40,15.00
2009,07,25,04,41,15.00
2009,07,25,04,42,15.00
2009,07,25,04,43,15.00
2009,07,25,04,44,15.00
2009,07,25,04,45,15.00
2009,07,25,04,46,15.00
2009,07,25,04,47,15.00
2009,07,25,04,48,15.00
2009,07,25,04,49,15.00
2009,07,25,04,50,15.00
2009,07,25,04,51,15.00
2009,07,25,04,52,15.00
2009,07,25,04,53,15.00
2009,07,25,04,54,15.00
2009,07,25,04,55,15.00
2009,07,25,04,56,15.00
2009,07,25,04,57,15.00
2009,07,25,04,58,15.00
2009,07,25,04,59,15.00
2009,07,25,05,00,15.00
2009,07,25,05,01,15.00
2009,07,25,05,02,15.00
2009,07,25,05,03,15.00
2009,07,25,05,04,15.00
2009,07,25,05,05,15.00
2009,07,25,05,06,15.00
2009,07,25,05,07,15.00
2009,07,25,05,08,15.00
2009,07,25,05,09,15.00
2009,07,25,05,10,15.00
2009,07,25,05,11,15.00
2009,07,25,05,12,15.00
2009,07,25,05,13,15.00
2009,07,25,05,14,15.00
2009,07,25,05,15,15.00
2009,07,25,05,16,15.00
2009,07,25,05,17,15.00
2009,07,25,05,18,15.00
2009,07,25,05,19,15.00
2009,07,25,05,20,15.00
2009,07,25,05,21,15.00
2009,07,25,05,22,15.00
2009,07,25,05,23,15.00
2009,07,25,05,24,15.00
2009,07,25,05,25,15.00
2009,07,25,05,26,15.00
2009,07,25,05,27,15.00
2009,07,25,05,28,15.00
2009,07,25,05,29,15.00
2009,07,25,05,30,15.00
2009,07,25,05,31,15.00
2009,07,25,05,32,15.00
2009,07,25,05,33,15.00
2009,07,25,05,34,15.00
2009,07,25,05,35,15.00
2009,07,25,05,36,15.00
2009,07,25,05,37,15.00
2009,07,25,05,38,15.00
2009,07,25,05,39,15.00
2009,07,25,05,40,15.00
2009,07,25,05,41,15.00
2009,07,25,05,42,15.00
2009,07,25,05,43,15.00
2009,07,25,05,44,15.00
2009,07,25,05,45,15.00
2009,07,25,05,46,15.00
2009,07,25,05,47,15.00
2009,07,25,05,48,15.00
2009,07,25,05,49,15.00
2009,07,25,05,50,15.00
2009,07,25,05,51,15.00
2009,07,25,05,52,15.00
2009,07,25,05,53,15.00
2009,07,25,05,54,15.00
2009,07,25,05,55,15.00
2009,07,25,05,56,15.00
2009,07,25,05,57,15.00
2009,07,25,05,58,15.00
2009,07,25,05,59,15.00
2009,07,25,06,00,15.00
2009,07,25,06,01,15.00
2009,07,25,06,02,15.00
2009,07,25,06,03,15.00
2009,07,25,06,04,15.00
2009,07,25,06,05,15.00
2009,07,25,06,06,15.00
2009,07,25,06,07,15.10
2009,07,25,06,08,15.10
2009,07,25,06,09,15.10
2009,07,25,06,10,15.10
2009,07,25,06,11,15.20
2009,07,25,06,12,15.20
2009,07,25,06,13,15.20
2009,07,25,06,14,15.20
2009,07,25,06,15,15.20
2009,07,25,06,16,15.20
2009,07,25,06,17,15.20
2009,07,25,06,18,15.20
2009,07,25,06,19,15.20
2009,07,25,06,20,15.30
2009,07,25,06,21,15.30
2009,07,25,06,22,15.30
2009,07,25,06,23,15.30
2009,07,25,06,24,15.30
2009,07,25,06,25,15.30
2009,07,25,06,26,15.30
2009,07,25,06,27,15.40
2009,07,25,06,28,15.40
2009,07,25,06,29,15.40
2009,07,25,06,30,15.40
2009,07,25,06,31,15.50
2009,07,25,06,32,15.50
2009,07,25,06,33,15.50
2009,07,25,06,34,15.50
2009,07,25,06,35,15.60
2009,07,25,06,36,15.60
2009,07,25,06,37,15.70
2009,07,25,06,38,15.70
2009,07,25,06,39,15.70
2009,07,25,06,40,15.80
2009,07,25,06,41,15.80
2009,07,25,06,42,15.80
2009,07,25,06,43,15.80
2009,07,25,06,44,15.90
2009,07,25,06,45,15.90
2009,07,25,06,46,15.90
2009,07,25,06,47,16.00
2009,07,25,06,48,16.00
2009,07,25,06,49,16.10
2009,07,25,06,50,16.10
2009,07,25,06,51,16.10
2009,07,25,06,52,16.10
2009,07,25,06,53,16.10
2009,07,25,06,54,16.20
2009,07,25,06,55,16.20
2009,07,25,06,56,16.20
2009,07,25,06,57,16.20
2009,07,25,06,58,16.20
2009,07,25,06,59,16.20
2009,07,25,07,00,16.20
2009,07,25,07,01,16.20
2009,07,25,07,02,16.20
2009,07,25,07,03,16.30
2009,07,25,07,04,16.30
2009,07,25,07,05,16.30
2009,07,25,07,06,16.30
2009,07,25,07,07,16.30
2009,07,25,07,08,16.30
2009,07,25,07,09,16.30
2009,07,25,07,10,16.30
2009,07,25,07,11,16.30
2009,07,25,07,12,16.30
2009,07,25,07,13,16.30
2009,07,25,07,14,16.30
2009,07,25,07,15,16.40
2009,07,25,07,16,16.40
2009,07,25,07,17,16.40
2009,07,25,07,18,16.40
2009,07,25,07,19,16.40
2009,07,25,07,20,16.50
2009,07,25,07,21,16.50
2009,07,25,07,22,16.50
2009,07,25,07,23,16.60
2009,07,25,07,24,16.60
2009,07,25,07,25,16.60
2009,07,25,07,26,16.60
2009,07,25,07,27,16.60
2009,07,25,07,28,16.70
2009,07,25,07,29,16.70
2009,07,25,07,30,16.70
2009,07,25,07,31,16.70
2009,07,25,07,32,16.70
2009,07,25,07,33,16.80
2009,07,25,07,34,16.80
2009,07,25,07,35,16.80
2009,07,25,07,36,16.80
2009,07,25,07,37,16.90
2009,07,25,07,38,16.90
2009,07,25,07,39,16.90
2009,07,25,07,40,17.00
2009,07,25,07,41,17.00
2009,07,25,07,42,17.10
2009,07,25,07,43,17.10
2009,07,25,07,44,17.20
2009,07,25,07,45,17.20
2009,07,25,07,46,17.30
2009,07,25,07,47,17.40
2009,07,25,07,48,17.50
2009,07,25,07,49,17.60
2009,07,25,07,50,17.70
2009,07,25,07,51,17.90
2009,07,25,07,52,18.10
2009,07,25,07,53,18.20
2009,07,25,07,54,18.30
2009,07,25,07,55,18.40
2009,07,25,07,56,18.50
2009,07,25,07,57,18.60
2009,07,25,07,58,18.70
2009,07,25,07,59,18.80
2009,07,25,08,00,18.90
2009,07,25,08,01,19.00
2009,07,25,08,02,19.00
2009,07,25,08,03,19.10
2009,07,25,08,04,19.20
2009,07,25,08,05,19.20
2009,07,25,08,06,19.30
2009,07,25,08,07,19.30
2009,07,25,08,08,19.40
2009,07,25,08,09,19.40
2009,07,25,08,10,19.40
2009,07,25,08,11,19.40
2009,07,25,08,12,19.50
2009,07,25,08,13,19.50
2009,07,25,08,14,19.60
2009,07,25,08,15,19.60
2009,07,25,08,16,19.60
2009,07,25,08,17,19.70
2009,07,25,08,18,19.70
2009,07,25,08,19,19.70
2009,07,25,08,20,19.80
2009,07,25,08,21,19.80
2009,07,25,08,22,19.90
2009,07,25,08,23,19.90
2009,07,25,08,24,20.00
2009,07,25,08,25,20.00
2009,07,25,08,26,19.90
2009,07,25,08,27,19.90
2009,07,25,08,28,19.90
2009,07,25,08,29,19.90
2009,07,25,08,30,19.90
2009,07,25,08,31,19.90
2009,07,25,08,32,19.90
2009,07,25,08,33,19.90
2009,07,25,08,34,19.80
2009,07,25,08,35,19.80
2009,07,25,08,36,19.80
2009,07,25,08,37,19.70
2009,07,25,08,38,19.70
2009,07,25,08,39,19.70
2009,07,25,08,40,19.70
2009,07,25,08,41,19.70
2009,07,25,08,42,19.80
2009,07,25,08,43,19.80
2009,07,25,08,44,19.80
2009,07,25,08,45,19.80
2009,07,25,08,46,19.80
2009,07,25,08,47,19.80
2009,07,25,08,48,19.90
2009,07,25,08,49,19.90
2009,07,25,08,50,19.90
2009,07,25,08,51,20.00
2009,07,25,08,52,20.10
2009,07,25,08,53,20.10
2009,07,25,08,54,20.10
2009,07,25,08,55,20.20
2009,07,25,08,56,20.20
2009,07,25,08,57,20.30
2009,07,25,08,58,20.30
2009,07,25,08,59,20.30
2009,07,25,09,00,20.40
2009,07,25,09,01,20.50
2009,07,25,09,02,20.50
2009,07,25,09,03,20.60
2009,07,25,09,04,20.60
2009,07,25,09,05,20.70
2009,07,25,09,06,20.70
2009,07,25,09,07,20.70
2009,07,25,09,08,20.70
2009,07,25,09,09,20.70
2009,07,25,09,10,20.70
2009,07,25,09,11,20.70
2009,07,25,09,12,20.70
2009,07,25,09,13,20.70
2009,07,25,09,14,20.80
2009,07,25,09,15,20.80
2009,07,25,09,16,20.80
2009,07,25,09,17,20.90
2009,07,25,09,18,20.90
2009,07,25,09,19,20.90
2009,07,25,09,20,21.00
2009,07,25,09,21,21.00
2009,07,25,09,22,21.00
2009,07,25,09,23,21.10
2009,07,25,09,24,21.10
2009,07,25,09,25,21.20
2009,07,25,09,26,21.30
2009,07,25,09,27,21.30
2009,07,25,09,28,21.30
2009,07,25,09,29,21.30
2009,07,25,09,30,21.30
2009,07,25,09,31,21.40
2009,07,25,09,32,21.40
2009,07,25,09,33,21.50
2009,07,25,09,34,21.60
2009,07,25,09,35,21.70
2009,07,25,09,36,21.80
2009,07,25,09,37,21.80
2009,07,25,09,38,21.80
2009,07,25,09,39,21.80
2009,07,25,09,40,21.80
2009,07,25,09,41,21.70
2009,07,25,09,42,21.60
2009,07,25,09,43,21.60
2009,07,25,09,44,21.60
2009,07,25,09,45,21.60
2009,07,25,09,46,21.60
2009,07,25,09,47,21.60
2009,07,25,09,48,21.60
2009,07,25,09,49,21.60
2009,07,25,09,50,21.40
2009,07,25,09,51,21.30
2009,07,25,09,52,21.20
2009,07,25,09,53,21.20
2009,07,25,09,54,21.20
2009,07,25,09,55,21.30
2009,07,25,09,56,21.30
2009,07,25,09,57,21.40
2009,07,25,09,58,21.40
2009,07,25,09,59,21.50
2009,07,25,10,00,21.50
2009,07,25,10,01,21.50
2009,07,25,10,02,21.50
2009,07,25,10,03,21.40
2009,07,25,10,04,21.40
2009,07,25,10,05,21.40
2009,07,25,10,06,21.40
2009,07,25,10,07,21.50
2009,07,25,10,08,21.60
2009,07,25,10,09,21.60
2009,07,25,10,10,21.70
2009,07,25,10,11,21.70
2009,07,25,10,12,21.80
2009,07,25,10,13,21.80
2009,07,25,10,14,21.80
2009,07,25,10,15,21.80
2009,07,25,10,16,21.70
2009,07,25,10,17,21.70
2009,07,25,10,18,21.60
2009,07,25,10,19,21.50
2009,07,25,10,20,21.40
2009,07,25,10,21,21.30
2009,07,25,10,22,21.30
2009,07,25,10,23,21.30
2009,07,25,10,24,21.30
2009,07,25,10,25,21.30
2009,07,25,10,26,21.30
2009,07,25,10,27,21.30
2009,07,25,10,28,21.30
2009,07,25,10,29,21.40
2009,07,25,10,30,21.30
2009,07,25,10,31,21.30
2009,07,25,10,32,21.30
2009,07,25,10,33,21.40
2009,07,25,10,34,21.40
2009,07,25,10,35,21.50
2009,07,25,10,36,21.60
2009,07,25,10,37,21.60
2009,07,25,10,38,21.70
2009,07,25,10,39,21.70
2009,07,25,10,40,21.80
2009,07,25,10,41,21.80
2009,07,25,10,42,21.90
2009,07,25,10,43,21.90
2009,07,25,10,44,21.80
2009,07,25,10,45,21.80
2009,07,25,10,46,21.70
2009,07,25,10,47,21.70
2009,07,25,10,48,21.60
2009,07,25,10,49,21.60
2009,07,25,10,50,21.50
2009,07,25,10,51,21.50
2009,07,25,10,52,21.50
2009,07,25,10,53,21.50
2009,07,25,10,54,21.50
2009,07,25,10,55,21.50
2009,07,25,10,56,21.60
2009,07,25,10,57,21.60
2009,07,25,10,58,21.70
2009,07,25,10,59,21.70
2009,07,25,11,00,21.70
2009,07,25,11,01,21.60
2009,07,25,11,02,21.50
2009,07,25,11,03,21.50
2009,07,25,11,04,21.50
2009,07,25,11,05,21.60
2009,07,25,11,06,21.50
2009,07,25,11,07,21.40
2009,07,25,11,08,21.50
2009,07,25,11,09,21.60
2009,07,25,11,10,21.60
2009,07,25,11,11,21.70
2009,07,25,11,12,21.80
2009,07,25,11,13,21.80
2009,07,25,11,14,21.80
2009,07,25,11,15,21.80
2009,07,25,11,16,21.80
2009,07,25,11,17,21.80
2009,07,25,11,18,21.80
2009,07,25,11,19,21.80
2009,07,25,11,20,21.70
2009,07,25,11,21,21.70
2009,07,25,11,22,21.70
2009,07,25,11,23,21.80
2009,07,25,11,24,21.90
2009,07,25,11,25,22.00
2009,07,25,11,26,22.00
2009,07,25,11,27,22.00
2009,07,25,11,28,21.90
2009,07,25,11,29,21.80
2009,07,25,11,30,21.80
2009,07,25,11,31,21.80
2009,07,25,11,32,21.70
2009,07,25,11,33,21.80
2009,07,25,11,34,21.80
2009,07,25,11,35,21.80
2009,07,25,11,36,21.90
2009,07,25,11,37,21.90
2009,07,25,11,38,22.00
2009,07,25,11,39,22.00
2009,07,25,11,40,22.00
2009,07,25,11,41,21.90
2009,07,25,11,42,21.70
2009,07,25,11,43,21.60
2009,07,25,11,44,21.50
2009,07,25,11,45,21.50
2009,07,25,11,46,21.60
2009,07,25,11,47,21.60
2009,07,25,11,48,21.60
2009,07,25,11,49,21.60
2009,07,25,11,50,21.70
2009,07,25,11,51,21.70
2009,07,25,11,52,21.60
2009,07,25,11,53,21.60
2009,07,25,11,54,21.50
2009,07,25,11,55,21.40
2009,07,25,11,56,21.30
2009,07,25,11,57,21.30
2009,07,25,11,58,21.30
2009,07,25,11,59,21.20
2009,07,25,12,00,21.20
2009,07,25,12,01,21.20
2009,07,25,12,02,21.20
2009,07,25,12,03,21.20
2009,07,25,12,04,21.20
2009,07,25,12,05,21.20
2009,07,25,12,06,21.30
2009,07,25,12,07,21.30
2009,07,25,12,08,21.30
2009,07,25,12,09,21.30
2009,07,25,12,10,21.40
2009,07,25,12,11,21.40
2009,07,25,12,12,21.40
2009,07,25,12,13,21.40
2009,07,25,12,14,21.50
2009,07,25,12,15,21.60
2009,07,25,12,16,21.60
2009,07,25,12,17,21.70
2009,07,25,12,18,21.70
2009,07,25,12,19,21.80
2009,07,25,12,20,21.80
2009,07,25,12,21,21.90
2009,07,25,12,22,21.90
2009,07,25,12,23,22.00
2009,07,25,12,24,22.10
2009,07,25,12,25,22.10
2009,07,25,12,26,22.10
2009,07,25,12,27,22.10
2009,07,25,12,28,22.20
2009,07,25,12,29,22.10
2009,07,25,12,30,22.00
2009,07,25,12,31,22.00
2009,07,25,12,32,21.90
2009,07,25,12,33,21.90
2009,07,25,12,34,22.00
2009,07,25,12,35,22.00
2009,07,25,12,36,22.10
2009,07,25,12,37,22.10
2009,07,25,12,38,22.20
2009,07,25,12,39,22.20
2009,07,25,12,40,22.20
2009,07,25,12,41,22.20
2009,07,25,12,42,22.10
2009,07,25,12,43,22.10
2009,07,25,12,44,22.10
2009,07,25,12,45,22.20
2009,07,25,12,46,22.20
2009,07,25,12,47,22.30
2009,07,25,12,48,22.30
2009,07,25,12,49,22.40
2009,07,25,12,50,22.40
2009,07,25,12,51,22.50
2009,07,25,12,52,22.50
2009,07,25,12,53,22.50
2009,07,25,12,54,22.50
2009,07,25,12,55,22.50
2009,07,25,12,56,22.40
2009,07,25,12,57,22.40
2009,07,25,12,58,22.40
2009,07,25,12,59,22.40
2009,07,25,13,00,22.40
2009,07,25,13,01,22.40
2009,07,25,13,02,22.40
2009,07,25,13,03,22.40
2009,07,25,13,04,22.30
2009,07,25,13,05,22.20
2009,07,25,13,06,22.20
2009,07,25,13,07,22.20
2009,07,25,13,08,22.20
2009,07,25,13,09,22.20
2009,07,25,13,10,22.20
2009,07,25,13,11,22.30
2009,07,25,13,12,22.30
2009,07,25,13,13,22.40
2009,07,25,13,14,22.50
2009,07,25,13,15,22.70
2009,07,25,13,16,22.80
2009,07,25,13,17,22.90
2009,07,25,13,18,23.00
2009,07,25,13,19,23.00
2009,07,25,13,20,23.00
2009,07,25,13,21,23.10
2009,07,25,13,22,23.10
2009,07,25,13,23,23.10
2009,07,25,13,24,23.10
2009,07,25,13,25,23.10
2009,07,25,13,26,23.20
2009,07,25,13,27,23.30
2009,07,25,13,28,23.30
2009,07,25,13,29,23.50
2009,07,25,13,30,23.50
2009,07,25,13,31,23.70
2009,07,25,13,32,23.70
2009,07,25,13,33,23.80
2009,07,25,13,34,23.70
2009,07,25,13,35,23.70
2009,07,25,13,36,23.60
2009,07,25,13,37,23.60
2009,07,25,13,38,23.70
2009,07,25,13,39,23.70
2009,07,25,13,40,23.80
2009,07,25,13,41,23.80
2009,07,25,13,42,23.90
2009,07,25,13,43,24.00
2009,07,25,13,44,24.10
2009,07,25,13,45,24.20
2009,07,25,13,46,24.30
2009,07,25,13,47,24.40
2009,07,25,13,48,24.40
2009,07,25,13,49,24.50
2009,07,25,13,50,24.60
2009,07,25,13,51,24.70
2009,07,25,13,52,24.80
2009,07,25,13,53,24.90
2009,07,25,13,54,24.90
2009,07,25,13,55,25.00
2009,07,25,13,56,25.10
2009,07,25,13,57,25.10
2009,07,25,13,58,25.10
2009,07,25,13,59,25.10
2009,07,25,14,00,25.10
2009,07,25,14,01,25.10
2009,07,25,14,02,25.00
2009,07,25,14,03,25.00
2009,07,25,14,04,24.90
2009,07,25,14,05,24.90
2009,07,25,14,06,24.90
2009,07,25,14,07,24.90
2009,07,25,14,08,24.90
2009,07,25,14,09,24.90
2009,07,25,14,10,24.90
2009,07,25,14,11,24.90
2009,07,25,14,12,24.80
2009,07,25,14,13,24.80
2009,07,25,14,14,24.80
2009,07,25,14,15,24.80
2009,07,25,14,16,24.80
2009,07,25,14,17,24.90
2009,07,25,14,18,24.90
2009,07,25,14,19,25.00
2009,07,25,14,20,25.10
2009,07,25,14,21,25.20
2009,07,25,14,22,25.30
2009,07,25,14,23,25.30
2009,07,25,14,24,25.30
2009,07,25,14,25,25.40
2009,07,25,14,26,25.40
2009,07,25,14,27,25.50
2009,07,25,14,28,25.60
2009,07,25,14,29,25.50
2009,07,25,14,30,25.40
2009,07,25,14,31,25.40
2009,07,25,14,32,25.40
2009,07,25,14,33,25.40
2009,07,25,14,34,25.50
2009,07,25,14,35,25.50
2009,07,25,14,36,25.60
2009,07,25,14,37,25.70
2009,07,25,14,38,25.70
2009,07,25,14,39,25.80
2009,07,25,14,40,25.70
2009,07,25,14,41,25.80
2009,07,25,14,42,25.80
2009,07,25,14,43,25.70
2009,07,25,14,44,25.70
2009,07,25,14,45,25.60
2009,07,25,14,46,25.60
2009,07,25,14,47,25.60
2009,07,25,14,48,25.50
2009,07,25,14,49,25.50
2009,07,25,14,50,25.40
2009,07,25,14,51,25.40
2009,07,25,14,52,25.40
2009,07,25,14,53,25.40
2009,07,25,14,54,25.50
2009,07,25,14,55,25.40
2009,07,25,14,56,25.40
2009,07,25,14,57,25.40
2009,07,25,14,58,25.40
2009,07,25,14,59,25.40
2009,07,25,15,00,25.50
2009,07,25,15,01,25.50
2009,07,25,15,02,25.60
2009,07,25,15,03,25.60
2009,07,25,15,04,25.70
2009,07,25,15,05,25.80
2009,07,25,15,06,25.90
2009,07,25,15,07,25.90
2009,07,25,15,08,26.10
2009,07,25,15,09,26.20
2009,07,25,15,10,26.30
2009,07,25,15,11,26.40
2009,07,25,15,12,26.50
2009,07,25,15,13,26.60
2009,07,25,15,14,26.50
2009,07,25,15,15,26.40
2009,07,25,15,16,26.50
2009,07,25,15,17,26.50
2009,07,25,15,18,26.60
2009,07,25,15,19,26.60
2009,07,25,15,20,26.70
2009,07,25,15,21,26.80
2009,07,25,15,22,26.80
2009,07,25,15,23,26.80
2009,07,25,15,24,26.90
2009,07,25,15,25,26.90
2009,07,25,15,26,26.90
2009,07,25,15,27,26.80
2009,07,25,15,28,26.80
2009,07,25,15,29,26.70
2009,07,25,15,30,26.60
2009,07,25,15,31,26.50
2009,07,25,15,32,26.50
2009,07,25,15,33,26.40
2009,07,25,15,34,26.40
2009,07,25,15,35,26.40
2009,07,25,15,36,26.40
2009,07,25,15,37,26.50
2009,07,25,15,38,26.50
2009,07,25,15,39,26.50
2009,07,25,15,40,26.60
2009,07,25,15,41,26.60
2009,07,25,15,42,26.60
2009,07,25,15,43,26.50
2009,07,25,15,44,26.50
2009,07,25,15,45,26.40
2009,07,25,15,46,26.40
2009,07,25,15,47,26.40
2009,07,25,15,48,26.50
2009,07,25,15,49,26.50
2009,07,25,15,50,26.60
2009,07,25,15,51,26.60
2009,07,25,15,52,26.50
2009,07,25,15,53,26.40
2009,07,25,15,54,26.40
2009,07,25,15,55,26.30
2009,07,25,15,56,26.30
2009,07,25,15,57,26.30
2009,07,25,15,58,26.30
2009,07,25,15,59,26.20
2009,07,25,16,00,26.20
2009,07,25,16,01,26.20
2009,07,25,16,02,26.20
2009,07,25,16,03,26.10
2009,07,25,16,04,26.00
2009,07,25,16,05,26.00
2009,07,25,16,06,26.10
2009,07,25,16,07,26.10
2009,07,25,16,08,26.10
2009,07,25,16,09,26.10
2009,07,25,16,10,26.10
2009,07,25,16,11,26.10
2009,07,25,16,12,26.20
2009,07,25,16,13,26.20
2009,07,25,16,14,26.30
2009,07,25,16,15,26.40
2009,07,25,16,16,26.40
2009,07,25,16,17,26.50
2009,07,25,16,18,26.60
2009,07,25,16,19,26.70
2009,07,25,16,20,26.70
2009,07,25,16,21,26.70
2009,07,25,16,22,26.80
2009,07,25,16,23,26.80
2009,07,25,16,24,26.80
2009,07,25,16,25,26.80
2009,07,25,16,26,26.70
2009,07,25,16,27,26.60
2009,07,25,16,28,26.50
2009,07,25,16,29,26.50
2009,07,25,16,30,26.40
2009,07,25,16,31,26.40
2009,07,25,16,32,26.40
2009,07,25,16,33,26.40
2009,07,25,16,34,26.40
2009,07,25,16,35,26.40
2009,07,25,16,36,26.40
2009,07,25,16,37,26.30
2009,07,25,16,38,26.30
2009,07,25,16,39,26.20
2009,07,25,16,40,26.20
2009,07,25,16,41,26.10
2009,07,25,16,42,26.00
2009,07,25,16,43,25.90
2009,07,25,16,44,25.90
2009,07,25,16,45,25.80
2009,07,25,16,46,25.80
2009,07,25,16,47,25.70
2009,07,25,16,48,25.60
2009,07,25,16,49,25.50
2009,07,25,16,50,25.40
2009,07,25,16,51,25.30
2009,07,25,16,52,25.20
2009,07,25,16,53,25.10
2009,07,25,16,54,25.00
2009,07,25,16,55,24.80
2009,07,25,16,56,24.70
2009,07,25,16,57,24.50
2009,07,25,16,58,24.40
2009,07,25,16,59,24.20
2009,07,25,17,00,24.00
2009,07,25,17,01,23.80
2009,07,25,17,02,23.60
2009,07,25,17,03,23.50
2009,07,25,17,04,23.40
2009,07,25,17,05,23.30
2009,07,25,17,06,23.30
2009,07,25,17,07,23.30
2009,07,25,17,08,23.30
2009,07,25,17,09,23.30
2009,07,25,17,10,23.30
2009,07,25,17,11,23.30
2009,07,25,17,12,23.30
2009,07,25,17,13,23.30
2009,07,25,17,14,23.40
2009,07,25,17,15,23.40
2009,07,25,17,16,23.50
2009,07,25,17,17,23.60
2009,07,25,17,18,23.60
2009,07,25,17,19,23.70